Change the Weather History Date:

Thursday, April 18, 2013

  Actual Average Record
Temperature  
Mean Temperature 54 °F -  
Max Temperature 66 °F 73 °F 84 °F (2004)
Min Temperature 42 °F 43 °F 21 °F (2009)
Degree Days  
Heating Degree Days 11    
Growing Degree Days 4 (Base 50)    
Moisture  
Dew Point 20 °F    
Average Humidity 27    
Maximum Humidity 46    
Minimum Humidity 14    
Precipitation  
Precipitation 0.00 in - - ()
Sea Level Pressure  
Sea Level Pressure 30.03 in    
Wind  
Wind Speed 15 mph (NNW)    
Max Wind Speed 26 mph    
Max Gust Speed 33 mph    
Visibility 10 miles    
Events      
Averages and records for this station are not official NWS values.
T = Trace of Precipitation, MM = Missing Value Source: NWS Daily Summary

Daily Weather History Graph

Daily Weather History Graph

Search for Another Location

Airport or City:

Trip Planner

Search our weather history database for the weather conditions in past years. The results will help you decide how hot, cold, wet, or windy it might be!

Date:

Astronomy

Apr. 18, 2013 Rise Set
Actual Time 7:25 AM CDT 8:25 PM CDT
Civil Twilight 7:00 AM CDT 8:50 PM CDT
Nautical Twilight 6:31 AM CDT 9:19 PM CDT
Astronomical Twilight 6:01 AM CDT 9:50 PM CDT
Moon 1:43 PM CDT 2:36 AM CDT
Length of Visible Light 13h 50m
Length of Day
13h 00m
First Quarter, 52% of the Moon is Illuminated
Apr 18
First Quarter
Apr 25
Full
May 2
Last Quarter
May 9
New
May 17
First Quarter

Hourly Weather History & Observations

Time (CDT) Temp. Windchill Dew Point Humidity Pressure Visibility Wind Dir Wind Speed Gust Speed Precip Events Conditions
12:15 AM 64.4 °F - 21.2 °F 19% 29.89 in 8.0 mi WNW 19.6 mph 25.3 mph N/A   Overcast
12:35 AM 64.4 °F - 23.0 °F 21% 29.88 in 7.0 mi WNW 24.2 mph - N/A   Overcast
12:55 AM 62.6 °F - 23.0 °F 22% 29.87 in 6.0 mi WNW 25.3 mph 31.1 mph N/A   Overcast
1:15 AM 60.8 °F - 21.2 °F 22% 29.88 in 5.0 mi WNW 26.5 mph 33.4 mph N/A   Overcast
1:35 AM 60.8 °F - 21.2 °F 22% 29.89 in 7.0 mi WNW 21.9 mph 28.8 mph N/A   Overcast
1:55 AM 59.0 °F - 21.2 °F 23% 29.90 in 7.0 mi WNW 20.7 mph 27.6 mph N/A   Overcast
2:15 AM 57.2 °F - 19.4 °F 23% 29.89 in 8.0 mi WNW 26.5 mph 32.2 mph N/A   Overcast
2:35 AM 55.4 °F - 19.4 °F 25% 29.90 in 10.0 mi WNW 23.0 mph 31.1 mph N/A   Overcast
2:55 AM 55.4 °F - 17.6 °F 23% 29.91 in 10.0 mi WNW 20.7 mph 28.8 mph N/A   Overcast
3:15 AM 53.6 °F - 17.6 °F 24% 29.93 in 10.0 mi NW 17.3 mph 21.9 mph N/A   Mostly Cloudy
3:35 AM 53.6 °F - 15.8 °F 22% 29.96 in 10.0 mi North 12.7 mph 19.6 mph N/A   Partly Cloudy
3:55 AM 53.6 °F - 17.6 °F 24% 29.96 in 10.0 mi NW 13.8 mph - N/A   Clear
4:15 AM 55.4 °F - 17.6 °F 23% 29.94 in 10.0 mi NW 18.4 mph 27.6 mph N/A   Clear
4:35 AM 51.8 °F - 15.8 °F 24% 29.97 in 10.0 mi North 6.9 mph - N/A   Clear
4:55 AM 51.8 °F - 15.8 °F 24% 29.97 in 10.0 mi NNW 11.5 mph - N/A   Clear
5:15 AM 51.8 °F - 15.8 °F 24% 29.97 in 10.0 mi NNE 11.5 mph - N/A   Clear
5:35 AM 50.0 °F - 15.8 °F 26% 29.98 in 10.0 mi North 10.4 mph - N/A   Clear
5:55 AM 48.2 °F - 14.0 °F 25% 30.00 in 10.0 mi North 9.2 mph - N/A   Clear
6:15 AM 46.4 °F 41.9 °F 14.0 °F 27% 30.00 in 10.0 mi North 9.2 mph - N/A   Clear
6:35 AM 46.4 °F 41.5 °F 15.8 °F 29% 30.00 in 10.0 mi North 10.4 mph - N/A   Clear
6:55 AM 46.4 °F 41.5 °F 17.6 °F 32% 30.01 in 10.0 mi NNE 10.4 mph - N/A   Clear
7:15 AM 44.6 °F 38.4 °F 17.6 °F 34% 30.01 in 10.0 mi NNE 12.7 mph - N/A   Clear
7:35 AM 44.6 °F 39.2 °F 17.6 °F 34% 30.01 in 10.0 mi North 10.4 mph - N/A   Clear
7:55 AM 44.6 °F 39.2 °F 19.4 °F 37% 30.02 in 10.0 mi NNE 10.4 mph - N/A   Clear
8:15 AM 46.4 °F 40.7 °F 19.4 °F 34% 30.03 in 10.0 mi NNE 12.7 mph - N/A   Clear
8:35 AM 48.2 °F - 19.4 °F 32% 30.04 in 10.0 mi NE 12.7 mph - N/A   Clear
8:55 AM 48.2 °F - 19.4 °F 32% 30.05 in 10.0 mi NNE 13.8 mph 18.4 mph N/A   Clear
9:15 AM 48.2 °F - 21.2 °F 34% 30.05 in 10.0 mi NNE 11.5 mph - N/A   Clear
9:35 AM 48.2 °F - 24.8 °F 40% 30.06 in 10.0 mi NNE 13.8 mph - N/A   Clear
9:55 AM 48.2 °F - 28.4 °F 46% 30.07 in 10.0 mi NNE 16.1 mph - N/A   Clear
10:15 AM 48.2 °F - 28.4 °F 46% 30.07 in 10.0 mi NNE 10.4 mph - N/A   Clear
10:35 AM 50.0 °F - 26.6 °F 40% 30.07 in 10.0 mi North 12.7 mph - N/A   Clear
10:55 AM 50.0 °F - 24.8 °F 37% 30.07 in 10.0 mi North 8.1 mph - N/A   Clear
11:15 AM 51.8 °F - 24.8 °F 35% 30.07 in 10.0 mi ENE 4.6 mph - N/A   Clear
11:35 AM 51.8 °F - 24.8 °F 35% 30.07 in 10.0 mi SSE 4.6 mph - N/A   Clear
11:55 AM 53.6 °F - 24.8 °F 33% 30.07 in 10.0 mi Calm Calm - N/A   Clear
12:15 PM 55.4 °F - 26.6 °F 33% 30.07 in 10.0 mi NNW 6.9 mph - N/A   Clear
12:35 PM 55.4 °F - 26.6 °F 33% 30.06 in 10.0 mi North 6.9 mph - N/A   Clear
12:55 PM 57.2 °F - 26.6 °F 31% 30.06 in 10.0 mi NNW 9.2 mph - N/A   Clear
1:15 PM 60.8 °F - 24.8 °F 25% 30.05 in 10.0 mi WSW 11.5 mph 20.7 mph N/A   Clear
1:35 PM 62.6 °F - 23.0 °F 22% 30.05 in 10.0 mi West 13.8 mph 21.9 mph N/A   Clear
1:55 PM 62.6 °F - 21.2 °F 20% 30.05 in 10.0 mi West 13.8 mph 20.7 mph N/A   Clear
2:15 PM 62.6 °F - 21.2 °F 20% 30.05 in 10.0 mi West 17.3 mph 24.2 mph N/A   Clear
2:35 PM 62.6 °F - 21.2 °F 20% 30.04 in 10.0 mi SW 10.4 mph - N/A   Clear
2:55 PM 62.6 °F - 21.2 °F 20% 30.04 in 10.0 mi WNW 11.5 mph 23.0 mph N/A   Clear
3:35 PM 64.4 °F - 19.4 °F 18% 30.04 in 10.0 mi West 16.1 mph 25.3 mph N/A   Clear
3:55 PM 64.4 °F - 19.4 °F 18% 30.03 in 10.0 mi West 16.1 mph 24.2 mph N/A   Clear
4:15 PM 62.6 °F - 19.4 °F 19% 30.03 in 10.0 mi NW 6.9 mph 21.9 mph N/A   Clear
4:35 PM 64.4 °F - 19.4 °F 18% 30.03 in 10.0 mi WSW 12.7 mph 23.0 mph N/A   Clear
4:55 PM 62.6 °F - 19.4 °F 19% 30.03 in 10.0 mi WNW 13.8 mph 20.7 mph N/A   Clear
5:15 PM 66.2 °F - 19.4 °F 17% 30.02 in 10.0 mi West 19.6 mph 26.5 mph N/A   Clear
5:35 PM 64.4 °F - 17.6 °F 16% 30.03 in 10.0 mi West 15.0 mph 21.9 mph N/A   Clear
5:55 PM 64.4 °F - 17.6 °F 16% 30.03 in 10.0 mi WNW 16.1 mph 25.3 mph N/A   Clear
6:15 PM 64.4 °F - 15.8 °F 15% 30.03 in 10.0 mi WNW 18.4 mph 25.3 mph N/A   Clear
6:35 PM 64.4 °F - 15.8 °F 15% 30.03 in 10.0 mi WNW 16.1 mph 21.9 mph N/A   Clear
6:55 PM 62.6 °F - 14.0 °F 15% 30.03 in 10.0 mi NW 9.2 mph - N/A   Clear
7:15 PM 62.6 °F - 14.0 °F 15% 30.03 in 10.0 mi WNW 16.1 mph 21.9 mph N/A   Clear
7:35 PM 62.6 °F - 12.2 °F 14% 30.04 in 10.0 mi NNW 10.4 mph 19.6 mph N/A   Clear
7:55 PM 57.2 °F - 23.0 °F 27% 30.05 in 10.0 mi ENE 16.1 mph - N/A   Clear
8:15 PM 55.4 °F - 23.0 °F 29% 30.07 in 10.0 mi ENE 11.5 mph - N/A   Clear
8:35 PM 53.6 °F - 23.0 °F 30% 30.09 in 10.0 mi NE 10.4 mph - N/A   Clear
8:55 PM 51.8 °F - 21.2 °F 30% 30.10 in 10.0 mi NE 10.4 mph - N/A   Clear
9:15 PM 50.0 °F - 21.2 °F 32% 30.12 in 10.0 mi NE 8.1 mph - N/A   Clear
9:35 PM 48.2 °F - 21.2 °F 34% 30.13 in 10.0 mi NE 6.9 mph - N/A   Clear
9:55 PM 46.4 °F 44.3 °F 21.2 °F 37% 30.14 in 10.0 mi NE 4.6 mph - N/A   Clear
10:35 PM 46.4 °F 42.4 °F 21.2 °F 37% 30.15 in 10.0 mi NNE 8.1 mph - N/A   Clear
10:55 PM 46.4 °F 42.4 °F 21.2 °F 37% 30.16 in 10.0 mi NE 8.1 mph - N/A   Clear
11:15 PM 44.6 °F 40.7 °F 19.4 °F 37% 30.16 in 10.0 mi NNE 6.9 mph - N/A   Clear
11:35 PM 42.8 °F 38.6 °F 19.4 °F 39% 30.17 in 10.0 mi ENE 6.9 mph - N/A   Clear
11:55 PM 42.8 °F 38.6 °F 19.4 °F 39% 30.17 in 10.0 mi NE 6.9 mph - N/A   Clear